Weather Service Report


264 
ASUS45 KCYS 281410
RWRWY 

WYOMING REGIONAL WEATHER ROUNDUP
NATIONAL WEATHER SERVICE CHEYENNE WY
800 AM MDT THU JUL 28 2016

NOTE:  "FAIR" INDICATES FEW OR NO CLOUDS BELOW 12,000 FEET
WITH NO SIGNIFICANT WEATHER AND/OR OBSTRUCTIONS TO VISIBILITY.

WYZ001-281500-
YELLOWSTONE NATIONAL PARK
  
CITY           SKY/WX    TMP DP  RH WIND       PRES   REMARKS
LK YELLOWSTONE   N/A     49  46  90 CALM      30.41S                  
W YELLOWSTONE  NOT AVBL                                               

$$
WYZ002>013-054>058-071-098>099-281500-
NORTHERN WYOMING
  
CITY           SKY/WX    TMP DP  RH WIND       PRES   REMARKS
JACKSON        SUNNY     55  39  54 CALM      30.31R                  
CODY           FAIR      63  52  67 W5        30.27F                  
GREYBULL       FAIR      66  55  67 W7        30.18R                  
WORLAND        FAIR      63  57  81 SW7       30.21F                  
SHERIDAN       FAIR      62  55  77 NE6       30.17F                  
BUFFALO        FAIR      60  55  83 S3        30.23F                  
GILLETTE       FAIR      59  59 100 S8        30.18F                  
HULETT         CLOUDY    61  55  82 S13       30.20F                  
NEWCASTLE      LGT RAIN  59  55  88 NW9       30.25R                  

$$
WYZ014>020-022>026-101>103-281500-
CENTRAL WYOMING
  
CITY           SKY/WX    TMP DP  RH WIND       PRES   REMARKS
BIG PINEY      FAIR      51  33  50 CALM      30.33R                  
PINEDALE       FAIR      55  34  44 SE3       30.35R                  
DUBOIS           N/A     54  36  50 NW8       30.36S HAZE             
LANDER         FAIR      64  49  57 CALM      30.28S                  
RIVERTON       FAIR      63  49  60 CALM      30.28F                  
CASPER         PTSUNNY   62  51  67 E12       30.26R                  
DOUGLAS          N/A    N/A N/A N/A MISG      30.28R                  

$$
WYZ021-027>030-104>119-281500-
SOUTHERN WYOMING
  
CITY           SKY/WX    TMP DP  RH WIND       PRES   REMARKS
EVANSTON       FAIR      63  28  26 S6        30.32S                  
KEMMERER         N/A     61  30  31 NW6G16    30.34R                  
FORT BRIDGER   FAIR      69  27  21 CALM      30.33S                  
ROCK SPRINGS   FAIR      64  47  53 E18G24    30.33R                  
DIXON          FAIR      56  33  41 CALM      30.33R                  
RAWLINS        FAIR      63  50  62 N7        30.31S                  
SARATOGA       FAIR      57  36  44 S13       30.34S                  
LARAMIE        FAIR      61  49  64 N9        30.31R                  
CHEYENNE       LGT RAIN  59  59 100 NE6       30.27R VSB 1/4          
TORRINGTON     PTSUNNY   63  57  81 SE16      30.16S                  
PINE BLUFFS    CLOUDY    59  55  88 E8        30.24S                  

$$
  

Return to Home page


Western Regional Climate Center, wrcc@dri.edu